Location: Newark
(34.6283°N, 36.0776°E)
Time: 03:08:18
(UTC+00:00)

Tiros 1 despin weight - Pass Details

Date: 28 September 2019
Orbit: 594 x 643 km, 48.2° (Epoch: 15 October)

Event Time Altitude Azimuth Distance (km) Brightness Sun altitude
Rises 04:26:56 0° 181° (S) 2,922 ? 11.3°
Reaches altitude 10° 04:30:43 10° 150° (SSE) 2,012 ? 12.0°
Maximum altitude 04:32:26 12° 128° (SE) 1,885 ? 12.4°
Drops below altitude 10° 04:34:08 10° 106° (ESE) 2,008 ? 12.7°
Sets 04:37:53 0° 75° (ENE) 2,908 ? 13.5°
